Gold Country Challenge - Two Day Inventory

Station: Loft Fly - T Race

Distance: 0.3 Miles    

Release: 04-Jun-2018 09:45

Weather Release: Hand Scan    Arrival: Hand Scan

Wind at Release:     Wind at Arrival:

Temp at Release: °    Temp at Arrival: °

Lofts: 88

Birds: 413

Clocked: 373

Two Day Inventory - Pulling 10th Flight on Most Birds + Hand Scan
Drops Pos Breeder Pigeon Name Color Sex Ent Arrival Speed To Win Eligible Champ
101 California Breeders Syndicate - CA 0126-AU18-HANG BBSP H 2 12:07:31.20 3.705 02:18:19 Yes
102 Genesis Syndicate Loft - AZ 0508-AU18-GEN BBSP H 3 12:08:34.30 3.678 02:19:22 Yes
103 All In - CA 0003-AU18-BON BB H 3 12:09:26.60 3.655 02:20:16 Yes
104 Jerry Gatto - CA 0502-AU18-HANG BB H 1 12:10:18.70 3.634 02:21:06 Yes
105 Nemelka Racing Pigeon Loft - UT 8024-AU18-NRPL Super 5166 x Aarden 3 BC C 3 12:11:13.40 3.611 02:22:02 Yes
106 P N W Challenge - ID 0709-AU18-DA Pair#J BCWF H 4 12:12:06.10 3.589 02:22:55 Yes
107 Al Uriarte - CA 0002-AU18-SEL BBWF H 1 12:12:53.80 3.570 02:23:42 Yes
108 De La O-Siino - CA 8090-AU18-COOK LBC H 1 12:20:07.20 3.404 02:30:55 Yes
109 Silicon Valley Syndicates - CA 1810-AU18-WSJ BB H 3 12:20:49.60 3.388 02:31:39 Yes
110 John Partridge - CA 1097-AU18-PASO BB C 2 12:21:34.40 3.372 02:32:23 Yes
111 Jactions Loft - CA 0809-AU18-AA BB H 4 12:22:30.30 3.352 02:33:19 Yes
112 Blue - Face - CA 1901-AU18-FVC BC H 2 12:23:11.20 3.338 02:33:59 Yes
113 Irishsyndicatelofts - AZ 0137-IF18-IRIS SILV H 2 12:24:01.50 3.320 02:34:51 Yes
114 Irishsyndicatelofts - AZ 0136-IF18-IRIS BB H 3 12:24:47.80 3.304 02:35:37 Yes
115 P N W Challenge - ID 0101-AU18-PNWC Pair#14 BB H 5 12:25:34.00 3.288 02:36:23 Yes
116 Silicon Valley Syndicates - CA 1847-AU18-WSJ BB H 4 12:26:13.50 3.275 02:37:02 Yes
117 Triangle F Loft - UT 0253-AU18-UVI SLT H 1 12:26:53.70 3.261 02:37:43 Yes
118 Perfection 2 - KS 1709-AU18-TCH SLT H 4 12:27:38.20 3.247 02:38:25 Yes
119 Irishsyndicatelofts - AZ 0147-IF18-IRIS BC H 4 12:28:23.50 3.231 02:39:13 Yes
120 Perfection 2 - KS 1719-AU18-TCH PIED H 5 12:29:12.30 3.215 02:40:02 Yes
121 O'brien & Ellis - CA 8402-AU18-SWI BB H 2 12:30:00.90 3.200 02:40:48 Yes
122 John Hedderson - CA 0815-AU18-HEDD BC H 4 12:30:49.60 3.184 02:41:38 Yes
123 John Partridge - CA 1024-AU18-PASO H 3 12:31:38.20 3.169 02:42:25 Yes
124 John Hedderson - CA 0803-AU18-HEDD RC H 5 12:32:18.60 3.156 02:43:06 Yes
125 Apr Loft - CA 2081-AU18-SFR Princes Katrina BB H 2 12:33:11.50 3.139 02:44:01 Yes
126 Evolution One Loft - UT 6136-AU18-OGN BC H 2 12:34:14.20 3.120 02:45:02 Yes
127 777-Loft - MN 0118-AU18-SPR BB H 1 12:35:04.70 3.104 02:45:55 Yes
128 Lopez/ Saenz - CA 0316-AU18-TCH BB H 1 12:35:54.50 3.089 02:46:44 Yes
129 John Partridge - CA 1001-AU18-PASO H 4 12:36:48.30 3.073 02:47:38 Yes
130 G & J Lofts - CA 3003-AU18-AA Only Frank Knows SLT H 4 12:37:34.40 3.060 02:48:21 Yes
131 Triangle F Loft - UT 0256-AU18-UVI BBWF H 2 12:38:27.40 3.044 02:49:16 Yes
132 John Partridge - CA 1055-AU18-PASO SLT H 5 12:39:20.10 3.029 02:50:07 Yes
133 Al Shulman - CA 2755-AU18-WSJ BBSP H 3 12:40:51.70 3.002 02:51:41 Yes
134 Skychargers - CA 0192-AU18-CORO CHOC H 3 12:41:45.40 2.987 02:52:34 Yes
135 John Partridge - CA 1081-AU18-PASO BC H 6 12:43:30.40 2.958 02:54:18 Yes
136 John Hedderson - CA 0802-AU18-HEDD RC H 6 12:44:14.20 2.946 02:55:02 Yes
137 Genesis Syndicate Loft - AZ 0507-AU18-GEN BBSP H 4 12:45:10.20 2.931 02:55:57 Yes
138 Sugar+onni Loft - CA 9375-AU18-FOYS BBWF H 2 12:46:19.20 2.912 02:57:08 Yes
139 P N W Challenge - ID 0120-AU18-PNWC Pair#16 BC H 6 12:47:18.40 2.896 02:58:08 Yes
140 Genesis Syndicate Loft - AZ 0510-AU18-GEN BB H 5 12:48:06.30 2.884 02:58:53 Yes
141 Oscar Yanez - CA 4676-AU18-FOYS Osty 5 BB H 1 12:48:58.70 2.870 02:59:47 Yes
142 Triangle F Loft - UT 0262-AU18-UVI SLT H 3 12:58:01.40 2.735 03:08:52 Yes
143 Genesis Syndicate Loft - AZ 0345-AU18-GEN RC H 6 12:59:20.80 2.717 03:10:08 Yes
144 Nanez Family Lofts - WI 8270-AU18-NANE BB H 2 12:59:58.90 2.708 03:10:47 Yes
145 Sugar+onni Loft - CA 9327-AU18-FOYS BB H 3 13:04:20.90 2.649 03:15:08 Yes
146 O'brien & Ellis - CA 8416-AU18-SWI SMBB H 3 13:05:08.80 2.638 03:15:57 Yes
147 Luisi/Tapia - NM 18003-AU18-TAP BBSP H 3 13:05:52.00 2.629 03:16:39 Yes
148 Bieu Tran - CA 0001-AU18-TRAN BC H 3 13:06:35.20 2.619 03:17:25 Yes
149 Jactions Loft - CA 0803-AU18-AA BB H 5 13:07:25.60 2.608 03:18:16 Yes
150 Oscar Yanez - CA 4684-AU18-FOYS Osty 6 BB H 2 13:08:14.20 2.598 03:19:02 Yes
151 Flyhome Loft - CA 1811-AU18-FLYH BB H 3 13:09:11.40 2.586 03:19:59 Yes
152 Marengo Creek Farms - AL 2967-AU18-MCF BB H 3 13:10:03.00 2.575 03:20:51 Yes
153 Jactions Loft - CA 0802-AU18-AA BB H 6 13:29:32.70 2.351 03:40:24 Yes
154 Jactions Loft - CA 0801-AU18-AA BB H 7 13:30:14.10 2.344 03:41:04 Yes
155 Skylinerpl.Com - UT 11426-AU18-JEDD "Gold Country's Favorite" BC H 3 13:30:55.20 2.337 03:41:44 Yes
156 Circle Loft 2 - FL 0014-AU18-CIRC BBWF H 1 13:31:57.80 2.326 03:42:48 Yes
157 Lechuga Loft - TX 0538-AU18-AMA RC H 2 13:32:44.80 2.318 03:43:35 Yes
158 H & H Flying Circus - CA 0804-AU18-ML BC H 1 13:33:37.10 2.310 03:44:23 Yes
159 Dick & Jeff Earthman - NV 0850-AU18-EART BBSP H 1 13:34:18.20 2.303 03:45:04 Yes
160 Bieche-Stevenson - CA 8297-AU18-BIE BC H 1 13:35:11.90 2.294 03:45:58 Yes
161 Skylinerpl.Com - UT 1036-AU18-UVI "Do It Again" BB H 4 13:35:53.80 2.287 03:46:41 Yes
162 California Breeders Syndicate - CA 1499-AU18-AA BBWF H 3 13:36:38.30 2.279 03:47:29 Yes
163 A P C Loft - TX 18202-AU18-APC BB H 7 13:37:20.90 2.272 03:48:12 Yes
164 B S Lofts - CA 0812-AU18-BSL ® 237 & 5552 BB H 3 13:37:58.70 2.266 03:48:49 Yes
165 Racing Pigeon Mall - WA 0800-AU18-RPM BB H 2 13:38:40.40 2.260 03:49:26 Yes
166 Nanez Family Lofts - WI 8184-AU18-NANE BB H 3 13:39:31.70 2.251 03:50:22 Yes
167 Sierra Ranch - CA 0828-AU18-SR Mr. Music BB H 4 13:40:15.10 2.244 03:51:06 Yes
168 Lechuga Loft - TX 0133-AU18-AMA DCWF H 3 13:40:54.80 2.238 03:51:44 Yes
169 Bieche-Stevenson - CA 8258-AU18-BIE BB H 2 13:41:32.90 2.232 03:52:22 Yes
170 Skylinerpl.Com - UT 11479-AU18-JEDD "Butterfinger" BB H 5 13:42:25.10 2.224 03:53:13 Yes
171 Skylinerpl.Com - UT 1040-AU18-UVI "Poortvliet Hen" BB H 6 13:43:13.40 2.216 03:54:04 Yes
172 A P C Loft - TX 18221-AU18-APC BB H 8 13:43:54.80 2.210 03:54:43 Yes
173 Villarama Family - CA 60983-AU18-ARPU C/R 2.2 BBSP H 1 13:44:39.00 2.203 03:55:29 Yes
174 De La O-Siino - CA 8088-AU18-COOK BB H 2 13:45:26.30 2.196 03:56:15 Yes
175 All In - CA 0159-AU18-BON SC H 4 13:46:18.60 2.188 03:57:07 Yes
176 Evolution One Loft - UT 6007-AU18-OGN BB H 3 13:47:29.10 2.177 03:58:21 Yes
177 Loizzi - Sikora - CA 2506-AU18-FVC BC H 4 13:49:02.30 2.164 03:59:48 Yes
178 John Mcdonald - OH 1204-AU18-BUCK RC H 1 13:49:47.80 2.157 04:00:35 Yes
179 Kay Eastwood - CA 0155-AU18-HANG BBSP H 2 13:50:48.00 2.148 04:01:37 Yes
180 Loizzi - Sikora - CA 2516-AU18-FVC BB H 5 13:51:48.00 2.139 04:02:39 Yes
181 D B Loft - CA 8578-AU18-JEDD desert snow BB H 2 13:52:38.20 2.132 04:03:28 Yes
182 Ken Chin - CA 0521-AU18-HAY SLT H 6 13:53:27.50 2.125 04:04:17 Yes
183 Sierra Ranch - CA 0806-AU18-SR Go Johnny BC H 5 13:54:35.20 2.115 04:05:27 Yes
184 Jactions Loft - CA 0806-AU18-AA BB H 8 13:55:32.50 2.107 04:06:24 Yes
185 Silicon Valley Syndicates - CA 1828-AU18-WSJ BC H 5 13:56:32.10 2.099 04:07:21 Yes
186 Aimhigh Loft - CA 0105-AU18-FMT Aim-66461/26485 BB H 2 13:57:19.70 2.093 04:08:05 Yes
187 Skylinerpl.Com - UT 11437-AU18-JEDD "A Little Smokey" SCHL H 7 13:58:07.00 2.086 04:08:55 Yes
188 Jerry Gatto - CA 0501-AU18-HANG BB H 2 13:59:19.10 2.076 04:10:09 Yes
189 California Breeders Syndicate - CA 1511-AU18-AA BB H 4 14:02:21.70 2.052 04:13:07 Yes
190 O'brien & Ellis - CA 8401-AU18-SWI BB H 4 14:04:35.80 2.034 04:15:24 Yes
191 B S Lofts - CA 0810-AU18-BSL ® 297 & 22 BBWF H 4 14:05:38.80 2.026 04:16:25 Yes
192 Nanez Family Lofts - WI 8269-AU18-NANE BB H 4 14:06:33.20 2.019 04:17:19 Yes
193 Cloux Loft - CO 8300-AU18-FH BCWF H 1 14:07:22.30 2.012 04:18:14 Yes
194 Marengo Creek Farms - AL 2937-AU18-MCF BCWF H 4 14:12:38.60 1.973 04:23:25 Yes
195 Peach Classic - GA 18005-AU18-PEAC BB H 2 14:23:08.20 1.898 04:34:00 Yes
196 Gomez Loft - CA 0170-AU18-CHP BB H 3 2018-06-05 07:23:14.90 0.652 13:25:37 Yes
197 Circle Loft 2 - FL 0009-AU18-CIRC BLK H 2 2018-06-05 07:29:17.10 0.648 13:30:37 Yes
198 G & L Loft - OR 3119-AU18-WPC DC H 2 2018-06-05 07:30:36.80 0.647 13:31:53 Yes
199 Genesis Syndicate Loft - AZ 0519-AU18-GEN BBSP H 7 2018-06-05 07:31:08.20 0.646 13:33:09 Yes
199 Avalos Lofts - CA 54650-AU18-ARPU BB H 2 2018-06-05 07:31:56.60 0.646 13:33:09 Yes

There are 399 bird records

Note: These Race Results are unofficial and subject to change until verified by the Race Committee and declared final.